This is the latest recevied weather packets stored in our database for station/object IV6ZJU-13. If no packets are shown the sender has not sent any weather packets the latest 10 day(s).
| Time | Temp. | Humidity | Pressure | Rain* | Wind** | Luminosity | Snow |
|---|---|---|---|---|---|---|---|
| 1777561752 | 21.67° C | 39% | 1013.1 hPa | - | - | - | - |
| 1777560852 | 20.56° C | 40% | 1013.1 hPa | - | - | - | - |
| 1777559952 | 20° C | 38% | 1013.1 hPa | - | - | - | - |
| 1777559052 | 18.89° C | 41% | 1013.1 hPa | - | - | - | - |
| 1777558151 | 17.22° C | 44% | 1013.1 hPa | - | - | - | - |
| 1777557251 | 16.67° C | 44% | 1013.1 hPa | - | - | - | - |
| 1777556351 | 16.67° C | 46% | 1013.2 hPa | - | - | - | - |
| 1777555451 | 16.67° C | 45% | 1013.3 hPa | - | - | - | - |
| 1777554551 | 16.11° C | 48% | 1013.4 hPa | - | - | - | - |
| 1777553651 | 16.67° C | 51% | 1013.5 hPa | - | - | - | - |
| 1777552750 | 16.11° C | 49% | 1013.6 hPa | - | - | - | - |
| 1777551850 | 16.11° C | 55% | 1013.7 hPa | - | - | - | - |
| 1777550950 | 15.56° C | 52% | 1013.6 hPa | - | - | - | - |
| 1777550050 | 15.56° C | 54% | 1013.6 hPa | - | - | - | - |
| 1777549150 | 15.56° C | 53% | 1013.7 hPa | - | - | - | - |
| 1777548250 | 15.56° C | 54% | 1013.7 hPa | - | - | - | - |
| 1777547349 | 15.56° C | 56% | 1013.7 hPa | - | - | - | - |
| 1777545548 | 15.56° C | 58% | 1013.6 hPa | - | - | - | - |
| 1777544648 | 15.56° C | 61% | 1013.6 hPa | - | - | - | - |
| 1777543748 | 15° C | 60% | 1013.2 hPa | - | - | - | - |
| 1777542851 | 15° C | 63% | 1013.5 hPa | - | - | - | - |
| 1777541951 | 14.44° C | 62% | 1013.4 hPa | - | - | - | - |
| 1777541051 | 14.44° C | 66% | 1013.3 hPa | - | - | - | - |
| 1777540151 | 14.44° C | 78% | 1013.3 hPa | - | - | - | - |
| 1777539251 | 14.44° C | 76% | 1013.2 hPa | - | - | - | - |
* Rain since midnight (hover to see other rain measurements)
** Current wind speed in m/s (hover to see current wind gust speed)